Location: ??????????
(54.8537°N, 38.8755°E)
Time: 14:54:03
(UTC+00:00)

Transit 2A - All Passes

Search period start: 13 September 2024 00:00
Search period end: 23 September 2024 00:00
Orbit: 590 x 961 km, 66.7° (Epoch: 13 September)

Date Brightness Start Highest point End Pass type
(mag) Time Alt. Az. Time Alt. Az. Time Alt. Az.
13 Sep - 01:01:21 10° NW 01:07:37 63° SW 01:13:31 10° SSE visible
13 Sep - 02:46:02 10° WNW 02:49:38 16° WSW 02:53:07 10° SW daylight
13 Sep - 15:47:02 10° S 15:52:07 29° ESE 15:57:27 10° NE daylight
13 Sep - 17:28:39 10° SW 17:34:47 82° NW 17:41:13 10° NE visible
13 Sep - 19:13:06 10° W 19:18:50 36° NNW 19:24:40 10° NE visible
13 Sep - 20:58:16 10° NW 21:03:41 28° N 21:09:04 10° ENE visible
13 Sep - 22:42:26 10° NW 22:48:28 41° NNE 22:54:16 10° E visible
14 Sep - 00:25:52 10° NW 00:32:15 80° SW 00:38:15 10° SE visible
14 Sep - 02:09:59 10° WNW 02:14:35 22° WSW 02:18:59 10° SSW visible
14 Sep - 15:12:30 10° SSE 15:16:59 22° ESE 15:21:40 10° ENE daylight
14 Sep - 16:53:16 10° SW 16:59:21 81° SE 17:05:45 10° NE visible
14 Sep - 18:37:17 10° W 18:43:09 41° NNW 18:49:10 10° NE visible
14 Sep - 20:22:30 10° WNW 20:27:54 28° N 20:33:17 10° NE visible
14 Sep - 22:06:55 10° NW 22:12:46 36° NNE 22:18:27 10° E visible
14 Sep - 23:50:24 10° NW 23:56:48 82° NE 00:02:51 10° SE visible
15 Sep - 01:34:11 10° NW 01:39:27 29° WSW 01:44:28 10° SSW visible
15 Sep - 14:38:20 10° SE 14:41:55 16° ESE 14:45:37 10° ENE daylight
15 Sep - 16:17:59 10° SSW 16:23:58 64° SE 16:30:17 10° NE visible
15 Sep - 18:01:31 10° WSW 18:07:29 48° NNW 18:13:40 10° NE visible
15 Sep - 19:46:41 10° WNW 19:52:07 29° N 19:57:34 10° NE visible
15 Sep - 21:31:21 10° NW 21:37:02 33° NNE 21:42:36 10° E visible
15 Sep - 23:14:57 10° NW 23:21:18 67° NE 23:27:20 10° SE visible
16 Sep - 00:58:31 10° NW 01:04:16 38° WSW 01:09:41 10° S visible
16 Sep - 14:04:57 10° ESE 14:06:55 12° E 14:08:54 10° E daylight
16 Sep - 15:42:51 10° SSW 15:48:39 49° ESE 15:54:44 10° NE daylight
16 Sep - 17:25:48 10° WSW 17:31:53 57° NW 17:38:12 10° NE visible
16 Sep - 19:10:48 10° WNW 19:16:20 30° NNW 19:21:54 10° NE visible
16 Sep - 20:55:43 10° NW 21:01:17 30° NNE 21:06:44 10° ENE visible
16 Sep - 22:39:28 10° NW 22:45:45 55° NE 22:51:43 10° ESE visible
17 Sep - 00:22:57 10° NW 00:29:00 50° WSW 00:34:42 10° SSE visible
17 Sep - 02:08:45 10° W 02:10:44 12° W 02:12:40 10° WSW visible
17 Sep - 15:07:53 10° S 15:13:23 38° ESE 15:19:10 10° NE daylight
17 Sep - 16:50:11 10° SW 16:56:20 69° NW 17:02:43 10° NE visible
17 Sep - 18:34:55 10° W 18:40:34 33° NNW 18:46:16 10° NE visible
17 Sep - 20:20:02 10° NW 20:25:30 29° N 20:30:53 10° ENE visible
17 Sep - 22:04:00 10° NW 22:10:08 47° NNE 22:16:00 10° ESE visible
17 Sep - 23:47:24 10° NW 23:53:41 65° SW 23:59:33 10° SSE visible
18 Sep - 01:32:02 10° WNW 01:35:43 16° WSW 01:39:15 10° SW visible
18 Sep - 14:33:06 10° SSE 14:38:11 29° ESE 14:43:28 10° NE daylight
18 Sep - 16:14:39 10° SW 16:20:50 84° NW 16:27:15 10° NE visible
18 Sep - 17:59:03 10° W 18:04:50 37° NNW 18:10:42 10° NE visible
18 Sep - 19:44:16 10° NW 19:49:41 28° N 19:55:03 10° ENE visible
18 Sep - 21:28:29 10° NW 21:34:28 40° NNE 21:40:13 10° E visible
18 Sep - 23:11:54 10° NW 23:18:17 82° SW 23:24:15 10° SE visible
19 Sep - 00:55:59 10° WNW 01:00:38 22° WSW 01:05:03 10° SSW visible
19 Sep - 13:58:34 10° SSE 14:03:02 22° ESE 14:07:39 10° ENE daylight
19 Sep - 15:39:15 10° SSW 15:45:22 79° SE 15:51:47 10° NE daylight
19 Sep - 17:23:13 10° W 17:29:08 42° NNW 17:35:10 10° NE visible
19 Sep - 19:08:27 10° WNW 19:13:53 28° N 19:19:15 10° NE visible
19 Sep - 20:52:55 10° NW 20:58:45 35° NNE 21:04:22 10° E visible
19 Sep - 22:36:26 10° NW 22:42:49 80° NE 22:48:49 10° SE visible
20 Sep - 00:20:11 10° NW 00:25:29 30° WSW 00:30:29 10° S visible
20 Sep - 13:24:26 10° SE 13:27:57 16° ESE 13:31:34 10° ENE daylight
20 Sep - 15:03:57 10° SSW 15:09:58 62° SE 15:16:16 10° NE daylight
20 Sep - 16:47:26 10° WSW 16:53:28 48° NNW 16:59:39 10° NE visible
20 Sep - 18:32:37 10° WNW 18:38:04 29° N 18:43:31 10° NE visible
20 Sep - 20:17:19 10° NW 20:23:00 32° NNE 20:28:30 10° E visible
20 Sep - 22:00:57 10° NW 22:07:17 66° NE 22:13:16 10° ESE visible
20 Sep - 23:44:30 10° NW 23:50:16 39° WSW 23:55:40 10° S visible
21 Sep - 12:51:10 10° ESE 12:52:55 11° E 12:54:41 10° E daylight
21 Sep - 14:28:49 10° SSW 14:34:38 48° ESE 14:40:43 10° NE daylight
21 Sep - 16:11:43 10° WSW 16:17:51 58° NW 16:24:10 10° NE visible
21 Sep - 17:56:43 10° WNW 18:02:16 31° NNW 18:07:50 10° NE visible
21 Sep - 19:41:40 10° NW 19:47:12 30° NNE 19:52:38 10° ENE visible
21 Sep - 21:25:27 10° NW 21:31:42 54° NE 21:37:37 10° ESE visible
21 Sep - 23:08:54 10° NW 23:14:59 51° WSW 23:20:38 10° SSE visible
22 Sep - 00:54:34 10° WNW 00:56:43 12° W 00:58:49 10° WSW visible
22 Sep - 13:53:50 10° S 13:59:21 37° ESE 14:05:06 10° NE daylight
22 Sep - 15:36:04 10° SW 15:42:16 70° NW 15:48:40 10° NE daylight
22 Sep - 17:20:49 10° W 17:26:29 33° NNW 17:32:12 10° NE visible
22 Sep - 19:05:56 10° NW 19:11:24 29° N 19:16:45 10° ENE visible
22 Sep - 20:49:56 10° NW 20:56:03 46° NNE 21:01:52 10° ESE visible
22 Sep - 22:33:21 10° NW 22:39:37 67° SW 22:45:27 10° SSE visible
